TimeEDT,TemperatureF,Dew PointF,Humidity,Sea Level PressureIn,VisibilityMPH,Wind Direction,Wind SpeedMPH,Gust SpeedMPH,PrecipitationIn,Events,Conditions,WindDirDegrees,DateUTC
12:15 AM,72.7,70.7,93,30.21,10.0,SE,4.6,-,N/A,Rain,Light Rain,140,2013-07-03 04:15:00
12:35 AM,72.7,70.7,93,30.20,10.0,SE,5.8,-,N/A,Rain,Light Rain,130,2013-07-03 04:35:00
12:55 AM,72.7,70.7,93,30.20,10.0,SSE,5.8,-,N/A,,Overcast,150,2013-07-03 04:55:00
1:15 AM,72.5,70.5,93,30.20,10.0,SSE,5.8,-,N/A,,Overcast,160,2013-07-03 05:15:00
1:35 AM,72.5,70.3,93,30.19,10.0,SSE,8.1,-,N/A,,Overcast,150,2013-07-03 05:35:00
1:55 AM,72.5,70.3,93,30.19,10.0,South,8.1,-,N/A,,Overcast,170,2013-07-03 05:55:00
2:15 AM,72.5,70.7,94,30.19,10.0,SSE,6.9,-,N/A,,Overcast,160,2013-07-03 06:15:00
2:35 AM,72.5,70.7,94,30.19,7.0,SSE,6.9,-,N/A,,Overcast,160,2013-07-03 06:35:00
2:55 AM,72.7,70.7,93,30.18,7.0,SSE,6.9,-,N/A,,Overcast,160,2013-07-03 06:55:00
3:15 AM,72.7,70.7,93,30.18,5.0,South,5.8,-,N/A,,Overcast,180,2013-07-03 07:15:00
3:35 AM,72.9,70.9,93,30.19,7.0,South,6.9,-,N/A,,Overcast,180,2013-07-03 07:35:00
3:55 AM,73.0,71.1,93,30.19,7.0,SSE,3.5,-,N/A,,Overcast,160,2013-07-03 07:55:00
4:15 AM,73.2,71.2,93,30.19,7.0,SSE,5.8,-,N/A,,Overcast,160,2013-07-03 08:15:00
4:35 AM,73.4,71.2,93,30.19,7.0,South,5.8,-,N/A,,Overcast,170,2013-07-03 08:35:00
4:55 AM,73.4,71.2,93,30.19,7.0,South,6.9,-,N/A,,Overcast,180,2013-07-03 08:55:00
5:15 AM,73.4,71.6,94,30.19,7.0,South,4.6,-,N/A,,Overcast,170,2013-07-03 09:15:00
5:35 AM,73.6,71.4,93,30.19,7.0,South,6.9,-,N/A,,Overcast,170,2013-07-03 09:35:00
5:55 AM,73.6,71.6,93,30.20,7.0,South,6.9,-,N/A,,Overcast,180,2013-07-03 09:55:00
6:15 AM,73.6,71.6,93,30.21,5.0,South,6.9,-,N/A,,Overcast,190,2013-07-03 10:15:00
6:35 AM,73.6,71.6,93,30.22,5.0,South,4.6,-,N/A,,Overcast,180,2013-07-03 10:35:00
6:55 AM,73.4,71.6,94,30.22,5.0,South,5.8,-,N/A,,Scattered Clouds,170,2013-07-03 10:55:00
7:15 AM,73.6,71.8,94,30.23,5.0,South,8.1,-,N/A,,Scattered Clouds,180,2013-07-03 11:15:00
7:35 AM,74.7,71.8,91,30.23,7.0,South,5.8,-,N/A,,Clear,190,2013-07-03 11:35:00
7:55 AM,75.4,72.0,89,30.24,7.0,South,8.1,-,N/A,,Scattered Clouds,190,2013-07-03 11:55:00
8:15 AM,76.5,72.3,87,30.25,10.0,South,6.9,-,N/A,,Mostly Cloudy,180,2013-07-03 12:15:00
8:35 AM,77.0,72.3,85,30.25,10.0,South,6.9,-,N/A,,Overcast,190,2013-07-03 12:35:00
8:55 AM,77.7,72.5,84,30.25,10.0,SSW,9.2,-,N/A,,Overcast,200,2013-07-03 12:55:00
9:15 AM,77.4,71.8,83,30.25,10.0,SSW,8.1,-,N/A,,Overcast,200,2013-07-03 13:15:00
9:35 AM,78.8,72.5,81,30.26,10.0,South,6.9,-,N/A,,Scattered Clouds,180,2013-07-03 13:35:00
9:55 AM,80.1,71.8,76,30.26,10.0,SSW,9.2,-,N/A,,Mostly Cloudy,200,2013-07-03 13:55:00
10:15 AM,80.2,72.0,76,30.25,10.0,South,10.4,-,N/A,,Overcast,170,2013-07-03 14:15:00
10:35 AM,80.8,71.1,72,30.25,10.0,South,8.1,-,N/A,,Mostly Cloudy,170,2013-07-03 14:35:00
10:55 AM,81.0,71.1,72,30.25,10.0,South,8.1,-,N/A,,Scattered Clouds,170,2013-07-03 14:55:00
11:15 AM,82.0,71.6,71,30.26,10.0,SSE,8.1,-,N/A,,Scattered Clouds,150,2013-07-03 15:15:00
11:35 AM,81.5,70.9,70,30.25,10.0,SSE,6.9,-,N/A,,Scattered Clouds,160,2013-07-03 15:35:00
11:55 AM,80.8,70.2,70,30.26,10.0,South,6.9,-,N/A,,Clear,180,2013-07-03 15:55:00
12:15 PM,81.7,71.4,71,30.26,10.0,SSE,6.9,-,N/A,,Clear,160,2013-07-03 16:15:00
12:35 PM,82.8,71.6,69,30.25,10.0,South,8.1,-,N/A,,Scattered Clouds,180,2013-07-03 16:35:00
12:55 PM,82.6,71.2,68,30.25,10.0,SSE,5.8,-,N/A,,Scattered Clouds,160,2013-07-03 16:55:00
1:15 PM,82.6,70.5,67,30.24,10.0,NW,4.6,-,N/A,,Scattered Clouds,320,2013-07-03 17:15:00
1:35 PM,78.6,70.0,75,30.24,10.0,Calm,Calm,-,N/A,,Overcast,0,2013-07-03 17:35:00
1:55 PM,81.9,71.6,71,30.24,10.0,South,3.5,-,N/A,,Mostly Cloudy,170,2013-07-03 17:55:00
2:15 PM,83.5,69.8,63,30.23,10.0,SE,6.9,-,N/A,,Mostly Cloudy,130,2013-07-03 18:15:00
2:35 PM,84.7,70.7,63,30.23,10.0,South,6.9,-,N/A,,Scattered Clouds,180,2013-07-03 18:35:00
2:55 PM,84.7,70.2,61,30.22,10.0,SSE,10.4,-,N/A,,Scattered Clouds,150,2013-07-03 18:55:00
3:15 PM,78.8,70.7,76,30.23,10.0,SE,11.5,18.4,0.01,Rain,Light Rain,140,2013-07-03 19:15:00
3:35 PM,75.7,71.1,85,30.24,7.0,South,9.2,-,0.02,Rain,Rain,170,2013-07-03 19:35:00
3:55 PM,75.9,72.3,89,30.23,10.0,SSE,4.6,-,0.05,,Scattered Clouds,150,2013-07-03 19:55:00
4:15 PM,75.6,71.2,86,30.24,10.0,NW,5.8,-,N/A,,Mostly Cloudy,310,2013-07-03 20:15:00
4:35 PM,75.6,71.2,86,30.23,10.0,Calm,Calm,-,N/A,,Overcast,0,2013-07-03 20:35:00
4:55 PM,74.3,70.9,89,30.24,0.8,Calm,Calm,-,0.24,Rain,Heavy Rain,0,2013-07-03 20:55:00
5:15 PM,74.3,71.6,91,30.24,2.0,Calm,Calm,-,0.19,Rain,Heavy Rain,0,2013-07-03 21:15:00
5:35 PM,73.8,71.6,93,30.24,1.5,Calm,Calm,-,0.34,Rain,Heavy Rain,0,2013-07-03 21:35:00
5:55 PM,74.1,70.7,89,30.23,10.0,South,3.5,-,0.38,Rain,Light Rain,170,2013-07-03 21:55:00
6:15 PM,74.8,71.4,89,30.23,10.0,SE,3.5,-,N/A,,Scattered Clouds,130,2013-07-03 22:15:00
6:35 PM,75.0,71.4,89,30.24,10.0,South,3.5,-,N/A,,Clear,180,2013-07-03 22:35:00
6:55 PM,75.2,71.6,89,30.24,10.0,South,3.5,-,N/A,Rain,Light Rain,170,2013-07-03 22:55:00
7:15 PM,75.2,71.8,89,30.24,10.0,SSE,5.8,-,N/A,Rain,Light Rain,150,2013-07-03 23:15:00
7:35 PM,75.4,71.6,88,30.24,10.0,SSE,4.6,-,N/A,,Clear,150,2013-07-03 23:35:00
7:55 PM,75.2,71.8,89,30.24,10.0,SE,3.5,-,N/A,,Clear,140,2013-07-03 23:55:00
8:15 PM,75.0,71.8,90,30.25,10.0,SSE,4.6,-,N/A,,Clear,150,2013-07-04 00:15:00
8:35 PM,74.5,71.6,91,30.24,10.0,SE,3.5,-,N/A,,Clear,140,2013-07-04 00:35:00
8:55 PM,74.3,71.6,91,30.25,10.0,SSE,3.5,-,N/A,,Clear,160,2013-07-04 00:55:00
9:15 PM,73.8,71.6,93,30.26,10.0,SSE,4.6,-,N/A,,Clear,150,2013-07-04 01:15:00
9:35 PM,73.6,71.6,93,30.25,10.0,SSE,3.5,-,N/A,,Clear,150,2013-07-04 01:35:00
9:55 PM,73.6,71.6,93,30.25,10.0,South,6.9,-,N/A,,Clear,170,2013-07-04 01:55:00
10:15 PM,73.6,71.6,93,30.25,10.0,SSE,5.8,-,N/A,,Clear,150,2013-07-04 02:15:00
10:35 PM,73.6,71.6,93,30.25,10.0,South,6.9,-,N/A,,Clear,170,2013-07-04 02:35:00
10:55 PM,73.4,71.4,93,30.26,10.0,SSE,8.1,-,N/A,,Scattered Clouds,160,2013-07-04 02:55:00
11:15 PM,73.4,71.6,94,30.26,10.0,South,8.1,-,N/A,,Mostly Cloudy,170,2013-07-04 03:15:00
11:35 PM,73.4,71.2,93,30.26,10.0,South,5.8,-,N/A,,Mostly Cloudy,170,2013-07-04 03:35:00
11:55 PM,73.0,71.1,93,30.27,10.0,South,6.9,-,N/A,,Scattered Clouds,180,2013-07-04 03:55:00